Время (UTC), дата Ветер
(°,м/с) 
Видим.   Явления Облачность Т
(°С)
Тd
(°С)
f(%) Тe
(°С)
Pmin
(гПа)
dP
(гПа)
Po
(мм)
O2
(г/м3)
Тmin Tmax R s Состояние
почвы
00 01.10.13 тихо ()   10 км    ясно 
+5.7 +4.2 90 +6  1016.8  -0.6  760  299           
03 01.10.13 050 (СВ) 10 км  дымка  8/3 1000 м средняя, верхняя 
[Sc|Ac trans|Ci fib]
+6.5 +3.9 83 +7  1015.6  -1.2  759  298  +5.6        влажная 
06 01.10.13 060 (СВ) 10 км    9/0 средняя, верхняя 
[Ac und|Cs]
+10 +4.5 69 +10  1014.1  -1.4  758  294           
09 01.10.13 050 (СВ) 10 км    10/3 1000 м средняя, верхняя 
[Sc|Ac trans|Cc]
+13.3 +5.8 60 +13  1013  -1.1  757  290           
12 01.10.13 050 (СВ) 10 км    10/0 средняя, верхняя 
[Ac und|Cs]
+13.8 +7.4 65 +14  1010.2  -2.7  755  288           
15 01.10.13 030 (СВ) 10 км    10/8 1000 м средняя 
[Sc|Ac und]
+12.6 +8 74 +13  1008.7  -1.5  754  289    +14.1       
18 01.10.13 020 (С) 10 км    10/0 средняя, верхняя 
[Ac trans|Cs]
+11.3 +7.7 78 +12  1008.2  -0.5  753  290           
21 01.10.13 060 (СВ) 4000 м  слаб. ливневой дождь  10/10 1000 м кучево-дожд. 
[Cb cap]
+11.5 +8 79 +13  1006.6  -1.6  752  289           
00 02.10.13 060 (СВ) 10 км  {ливн. осадки}  10/0 средняя, верхняя 
[As trans|Cs]
+10.4 +7.9 84 +11  1004.6  -2.1  751  290           
03 02.10.13 тихо ()   10 км  в посл. час дождь  10/6 600 м средняя 
[Frnb|As op]
+10.3 +8.3 87 +10  1003.6  -0.9  750  290  +10.2        влажная 
06 02.10.13 080 (В) 4000 м  слаб. ливневой дождь  10/10 600 м кучево-дожд. 
[Cb cap]
+10.6 +9.4 92 +11  1003.5  0.1  750  289           
09 02.10.13 310 (СЗ) 4000 м  слаб. ливневой дождь  10/10 200 м кучево-дожд. 
[Cb cap]
+11 +10.3 95 +14  1003.6  -0.1  750  289           
12 02.10.13 010 (С) 2000 м  ливневой дождь  10/10 100 м кучево-дожд. 
[Cb cap]
+11.4 +10.9 97 +15  1003.1  -0.5  750  288           
15 02.10.13 тихо ()   4000 м  слаб. ливневой дождь  10/10 200 м кучево-дожд. 
[Cb cap]
+11.9 +11.4 97 +15  1004.4  1.3  751  288    +12  55     
18 02.10.13 040 (СВ) 10 км  {ливн. осадки}  10/10 300 м 
[Sc diur, vesp]
+10.9 +10.5 97 +13  1004.6  0.3  751  289           
21 02.10.13 060 (СВ) 0500 м  туман  ?/?  
+10.8 +10.4 97 +14  1004.8  0.2  751  289           
00 03.10.13 110 (В) 10 км  {туман}  10/10 300 м 
[St]
+12.1 +11.6 97 +15  1004  -0.8  750  287           
03 03.10.13 180 (Ю) 10 км    9/9 600 м 
[Sc]
+14.6 +12 84 +19  1003.8  -0.1  750  285  +10.6    0.5    влажная 
06 03.10.13 260 (З) 10 км  {дождь}  10/10 300 м 
[St]
+10.9 +9.5 91 +10  1006.5  2.6  752  290           
09 03.10.13 240 (ЮЗ) 10 км    10/8 1000 м кучево-дожд., средняя 
[Cb cap|Ac und]
+12.9 +6.8 66 +13  1008.7  2.6  754  289           
12 03.10.13 250 (З) 10 км    10/6 1000 м кучево-дожд., средняя 
[Cb cap|Ac und]
+14.2 +7 62 +15  1010.2  1.4  755  288           
15 03.10.13 270 (З) 10 км  в посл. час ливневой дождь  10/8 1000 м кучево-дожд., средняя 
[Cb cap|Ac und]
+11.2 +8.2 82 +11  1011.7  1.5  756  291    +14.8  0.3     
18 03.10.13 260 (З) 10 км  в посл. час ливневой дождь  10/10 1000 м кучево-дожд. 
[Cb cap]
+8.5 +5.4 81 +8  1014.2  2.5  758  295           
21 03.10.13 270 (З) 10 км    10/8 1000 м средняя 
[Sc|Ac und]
+7.8 +4.1 77 +9  1014.8  0.6  758  296           
00 04.10.13 260 (З) 10 км    9/9 1000 м 
[Sc]
+7.7 +4.7 81 +9  1015.2  0.4  759  297           
06 04.10.13 200 (Ю) 10 км    8/4 1000 м средняя, верхняя 
[Sc diur, vesp|Ac trans|Ci fib]
+9 +4.4 73 +9  1015.5  0.5  759  295  +6.9         
09 04.10.13 220 (ЮЗ) 10 км    10/4 1000 м кучево-дожд., верхняя 
[Cb cap|Ci fib]
+10.7 +2.5 57 +10  1016  0.5  759  294           
12 04.10.13 250 (З) 3{10}  10 км    10/4 1000 м кучево-дожд., средняя, верхняя 
[Cb cap|Ac trans|Ci fib]
+10.5 +3.7 63 +10  1016.5  0.5  760  294           
15 04.10.13 230 (ЮЗ) 10 км    8/4 1000 м кучево-дожд., средняя, верхняя 
[Cb cap|Ac trans|Ci fib]
+8.6 +2.8 67 +8  1017.5  760  297    +12       
18 04.10.13 170 (Ю) 10 км    10/5 1000 м средняя 
[Sc diur, vesp|Ac und]
+7.7 +3.9 77 +8  1018.1  0.6  761  298           
21 04.10.13 220 (ЮЗ) 10 км    10/8 600 м средняя 
[Sc|Ac und]
+7.7 +3.8 76 +8  1018  0.1  761  298           
00 05.10.13 210 (ЮЗ) 10 км    8/5 600 м верхняя 
[Sc|Ci fib]
+6.9 +4.4 84 +8  1018.1  761  298           
03 05.10.13 200 (Ю) 10 км    6/3 1000 м средняя, верхняя 
[Sc|Ac trans|Ci fib]
+5.7 +4.1 89 +7  1018.5  0.5  761  300  +5.7        влажная 
06 05.10.13 220 (ЮЗ) 10 км    8/3 1000 м средняя, верхняя 
[Cu Sc|Ac trans|Ci fib]
+9.6 +3.9 68 +9  1019  0.5  761  296  +5.6         
09 05.10.13 230 (ЮЗ) 10 км    8/6 1000 м кучево-дожд., средняя, верхняя 
[Cb cap|Ac trans|Ci fib]
+11.6 +3.6 58 +11  1019.1  0.1  762  294           
12 05.10.13 250 (З) 10 км    9/6 1000 м кучево-дожд., средняя, верхняя 
[Cb cap|Ac trans|Ci]
+11 +4.6 65 +10  1019.2  0.1  762  294           
15 05.10.13 270 (З) 10 км    10/10 1000 м кучево-дожд. 
[Cb cap]
+8.2 +4.7 79 +8  1020.6  1.4  763  298    +12.5       
18 05.10.13 280 (З) 10 км    10/10 1000 м кучево-дожд. 
[Cb cap]
+6.6 +4.8 88 +6  1022.3  1.6  764  300           
21 05.10.13 290 (З) 10 км    10/10 1000 м кучево-дожд. 
[Cb cap]
+5.9 +4.3 89 +7  1023  0.7  764  301           
00 06.10.13 360 (С) 10 км    10/10 1000 м кучево-дожд. 
[Cb cap]
+5.6 +3.7 88 +6  1023.3  0.2  765  301           
03 06.10.13 040 (СВ) 10 км    9/4 1000 м кучево-дожд., средняя 
[Cb cap|Ac trans]
+4.8 +2.9 87 +6  1023.9  0.7  765  303  +4.8         
06 06.10.13 050 (СВ) 10 км    10/10 600 м 
[St]
+6.2 +3.1 81 +7  1025  766  301  +4.8         
09 06.10.13 020 (С) 10 км    10/10 600 м кучево-дожд. 
[Cb cap]
+7.3 +2.4 71 +8  1025.1  0.2  766  300           
12 06.10.13 020 (С) 10 км    10/8 1000 м средняя 
[Sc|Ac und]
+7.4 +1.8 68 +8  1025.7  0.2  767  300           
15 06.10.13 030 (СВ) 10 км    10/10 1000 м 
[Sc]
+6.3 +2 74 +7  1026.9  1.1  767  302    +7.5       
18 06.10.13 020 (С) 10 км    10/10 1000 м 
[Sc]
+6 +1.6 73 +6  1028  1.1  768  303           
21 06.10.13 030 (СВ) 10 км    10/10 600 м 
[Sc]
+5.3 +1.5 77 +5  1028.9  0.8  769  304           
00 07.10.13 030 (СВ) 10 км    10/10 1000 м 
[Sc]
+4.7 +1.4 79 +6  1029.5  0.6  769  305           
03 07.10.13 030 (СВ) 10 км    10/10 600 м 
[Sc]
+4.3 +0.3 75 +4  1030.7  1.2  770  305  +4.3        влажная 
06 07.10.13 020 (С) 10 км    5/3 1000 м средняя, верхняя 
[Sc|Ac trans|Cc]
+7 +1.2 67 +8  1032.1  1.4  771  303  +4.2         
09 07.10.13 040 (СВ) 10 км    9/9 1000 м средняя 
[Cu Sc|Ac trans]
+8.4 +1.2 60 +9  1032  771  301           
12 07.10.13 350 (С) 10 км    9/9 1000 м 
[Sc]
+10 +2.2 58 +11  1031.7  -0.3  771  299           
15 07.10.13 010 (С) 10 км    3/3 1000 м 
[Sc]
+8.1 +2.2 66 +9  1031.7  771  301    +11.4       
18 07.10.13 030 (СВ) 10 км    4/4 1000 м 
[Sc]
+6.7 +1.7 70 +8  1032.3  0.5  771  303           
21 07.10.13 030 (СВ) 10 км    4/0 средняя, верхняя 
[Ac trans|Ci fib]
+5.2 +1.3 76 +6  1032.6  0.3  772  305           
00 08.10.13 тихо ()   10 км    3/0 средняя 
[Ac trans]
+3.4 +0.9 84 +3  1032.6  772  307           
03 08.10.13 тихо ()   4000 м  дымка  8/3 1000 м средняя, верхняя 
[Sc|Ac trans|Cc]
+2.2 +1.1 92 +2  1032.8  0.1  772  308  +2        влажная 
06 08.10.13 140 (ЮВ) 10 км    1/1 300 м 
[St]
+7.9 +4.4 79 +9  1033.5  0.8  772  302  +1.9         
09 08.10.13 150 (ЮВ) 10 км    3/0 верхняя 
[Ci sp]
+11.9 +2.7 53 +13  1033.1  -0.3  772  298           
12 08.10.13 200 (Ю) 10 км    3/0 средняя 
[Ac trans]
+15.3 +4.3 48 +17  1031.5  -1.6  771  294           
15 08.10.13 280 (З) 10 км    1/1 1500 м 
[Sc]
+13 +5.4 60 +14  1031.4  -0.1  771  296    +15.9       
18 08.10.13 тихо ()   4000 м  дымка  ясно 
+7.4 +6 91 +7  1032.1  0.7  771  302           
21 08.10.13 тихо ()   4000 м  дымка  ясно 
+5.2 +3.6 89 +5  1032.2  771  304           
00 09.10.13 тихо ()   4000 м  дымка  4/0 средняя 
[Ac trans]
+5.5 +3.6 87 +6  1031.7  -0.4  771  304           
03 09.10.13 тихо ()   4000 м  дымка  3/0 средняя 
[Ac trans]
+4.5 +3.3 92 +5  1031.4  -0.3  771  305  +4.5         
06 09.10.13 тихо ()   4000 м  дымка  9/9 1000 м 
[Sc]
+8.8 +5.1 78 +9  1031.8  0.4  771  300  +4.3         
09 09.10.13 080 (В) 10 км    1/0 верхняя 
[Ci fib]
+15 +6.4 56 +16  1030.5  -1.2  770  293           
12 09.10.13 230 (ЮЗ) 10 км    ясно 
+17.4 +6.9 50 +19  1028.5  -1.9  769  290           
15 09.10.13 060 (СВ) 10 км    1/0 средняя 
[Ac trans]
+14.2 +7.8 65 +15  1027.6  -0.9  768  293    +18       
18 09.10.13 060 (СВ) 10 км    ясно 
+10.5 +7 79 +12  1027.6  0.1  768  297           
21 09.10.13 070 (В) 10 км    ясно 
+8.7 +6.6 87 +10  1027  -0.6  767  299           
00 10.10.13 050 (СВ) 10 км    ясно 
+7.2 +5.5 89 +8  1025.9  -1.2  767  300           
03 10.10.13 060 (СВ) 4000 м  дымка  ясно 
+5.3 +4.3 93 +6  1025.7  -0.2  766  302  +5.3        влажная 
06 10.10.13 090 (В) 10 км    ясно 
+10.2 +6.6 78 +10  1024.9  -0.7  766  296  +5.2         
09 10.10.13 090 (В) 10 км    ясно 
+18.5 +6.1 44 +19  1023.9  -0.9  765  288           
12 10.10.13 070 (В) 10 км    ясно 
+22.1 +4.4 31 +22  1022.5  -1.3  764  284           
15 10.10.13 060 (СВ) 10 км    3/0 средняя, верхняя 
[Ac trans|Ci fib]
+18.3 +6.8 47 +20  1022.1  -0.5  764  287    +22.5       
18 10.10.13 080 (В) 10 км    ясно 
+14.3 +7.2 62 +16  1021.7  -0.4  764  291           
21 10.10.13 050 (СВ) 10 км    ясно 
+11.2 +7.3 77 +12  1021.7  0.1  764  294           
00 11.10.13 060 (СВ) 10 км    ясно 
+9.1 +6.6 84 +10  1021.7  764  297           
03 11.10.13 тихо ()   10 км    8/0 средняя, верхняя 
[Ac trans|Ci fib]
+7.9 +6.7 92 +8  1022.2  0.5  764  298  +7.7        влажная 
06 11.10.13 080 (В) 10 км    8/0 верхняя 
[Ci]
+11.5 +7.6 77 +13  1023  0.8  764  294  +7.3         
09 11.10.13 090 (В) 10 км    10/0 средняя, верхняя 
[Ac trans|Cc]
+20.8 +8.3 45 +21  1022.4  -0.5  764  285           
12 11.10.13 020 (С) 10 км    10/0 средняя, верхняя 
[Ac trans|Cc]
+22.6 +6.1 34 +23  1021.7  -0.6  764  283           
15 11.10.13 тихо ()   10 км    9/8 1000 м средняя, верхняя 
[Cu Sc|Ac trans|Cc]
+19 +11 60 +21  1021.9  0.1  764  286    +24.2       
18 11.10.13 тихо ()   4000 м  дымка  1/1 1000 м 
[Sc]
+13.7 +11.4 86 +16  1022.6  0.6  764  291           
21 11.10.13 260 (З) 4000 м  дымка  ясно 
+12 +9.5 85 +13  1022.6  0.1  764  293           
00 12.10.13 250 (З) 4000 м  дымка  ясно 
+10.8 +9.2 90 +12  1022.4  -0.2  764  295           
03 12.10.13 210 (ЮЗ) 4000 м  дымка  ясно 
+8.4 +7.6 95 +9  1022.9  0.5  764  298  +8.4        влажная 
06 12.10.13 230 (ЮЗ) 0500 м  туман  ?/?  
+10 +9.3 95 +11  1023.9  765  296  +8.3         
09 12.10.13 290 (З) 10 км  дымка{туман}  ясно 
+14.3 +9.2 71 +15  1023.7  0.1  765  291           
12 12.10.13 320 (СЗ) 10 км  {туман}  ясно 
+17.4 +11.1 66 +21  1022.7  -1  764  287           
15 12.10.13 260 (З) 10 км    ясно 
+15.1 +11.1 77 +18  1022.7  764  290    +17.9       
18 12.10.13 300 (СЗ) 10 км    ясно 
+12 +10.4 90 +14  1023.4  0.6  765  293           
21 12.10.13 300 (СЗ) 0500 м  туман  ?/?  
+10.2 +9.5 95 +11  1023.5  0.1  765  295           
00 13.10.13 290 (З) 0500 м  туман  ?/?  
+10.4 +9.8 96 +13  1023.4  0.1  765  295           
03 13.10.13 тихо ()   0500 м  туман  ?/?  
+10.5 +9.6 94 +11  1023.3  0.1  765  295  +9.8         
06 13.10.13 тихо ()   0200 м  туман  ?/?  
+10.9 +10.4 97 +12  1024  0.7  765  295           
09 13.10.13 260 (З) 4000 м  {туман}  10/10 300 м 
[St]
+12.7 +10.2 85 +15  1024  765  293           
18 13.10.13 290 (З) 4000 м  дымка  ясно 
+10.5 +9.4 93 +12  1023.6  0.5  765  295           
21 13.10.13 280 (З) 0500 м  туман  ?/?  
+10.6 +9.9 95 +13  1023.3  -0.3  765  295           
00 14.10.13 310 (СЗ) 0200 м  туман  ?/?  
+10.5 +9.9 96 +13  1023.5  0.2  765  295           
03 14.10.13 220 (ЮЗ) 0500 м  туман  ?/?  
+10.3 +9.7 96 +11  1023.5  765  295  +10.2        влажная 
06 14.10.13 тихо ()   1000 м  слаб. морось{туман}  10/10 100 м 
[St]
+10.9 +10.1 95 +12  1024.7  1.2  766  295           
09 14.10.13 тихо ()   2000 м  дымка{морось}  10/10 200 м 
[St]
+12.7 +10.2 85 +14  1024.5  -0.2  766  293           
12 14.10.13 290 (З) 10 км  {морось}  3/3 600 м 
[Cu hum]
+16.7 +10.3 66 +19  1023.2  -1.2  765  289           
15 14.10.13 080 (В) 10 км    10/0 верхняя 
[Ci fib]
+14 +10.5 79 +16  1023.4  0.2  765  291    +17.1       
18 14.10.13 тихо ()   4000 м  дымка  8/0 верхняя 
[Ci fib]
+10.5 +9.5 94 +11  1024.8  1.4  766  295           
21 14.10.13 тихо ()   1000 м  дымка  5/0 верхняя 
[Ci fib]
+8.6 +7.9 95 +9  1024.5  -0.3  766  298           
00 15.10.13 тихо ()   0500 м  туман  ?/?  
+7.5 +6.9 96 +8  1024.6  0.1  766  299           
03 15.10.13 050 (СВ) 0200 м  туман  ?/?  
+6.9 +6.4 97 +8  1024.3  -0.2  765  300  +6.9        влажная 
06 15.10.13 110 (В) 0200 м  туман  ?/?  
+9.2 +8.8 97 +10  1024.9  0.6  766  297  +6.5         
09 15.10.13 070 (В) 4000 м  дымка{туман}  4/0 средняя, верхняя 
[Ac cast|Ci fib]
+15.4 +10.1 71 +18  1024.1  -0.8  765  290           
12 15.10.13 040 (СВ) 10 км  {туман}  1/0 верхняя 
[Ci fib]
+18.7 +9.3 54 +20  1022  -2  764  286           
15 15.10.13 080 (В) 10 км    ясно 
+15.2 +8.1 63 +17  1021  -1  763  290    +19       
18 15.10.13 050 (СВ) 10 км    1/0 верхняя 
[Ci fib]
+11.8 +7.8 76 +13  1020.1  -0.9  762  293           
21 15.10.13 050 (СВ) 10 км    10/0 верхняя 
[Ci]
+10.1 +7.8 86 +11  1018.5  -1.6  761  294           
00 16.10.13 тихо ()   4000 м  дымка  8/0 средняя, верхняя 
[Ac trans|Ci fib]
+8.9 +7.2 89 +9  1017.2  -1.3  760  295           
03 16.10.13 тихо ()   4000 м  дымка  10/3 1000 м верхняя 
[Sc|Ci fib]
+8.8 +7.5 92 +9  1016.2  -1  759  295  +8.4        влажная 
06 16.10.13 тихо ()   4000 м  дымка  5/0 средняя, верхняя 
[Ac trans|Ci fib]
+14.3 +9.9 75 +15  1015.9  -0.2  759  289  +8.3         
09 16.10.13 180 (Ю) 10 км    10/0 средняя, верхняя 
[Ac trans|Ci fib]
+20.7 +9.5 49 +21  1013.7  -2.1  758  282           
12 16.10.13 220 (ЮЗ) 10 км    9/1 1500 м средняя, верхняя 
[Sc|Ac trans|Ci fib]
+21.2 +8.8 45 +21  1012  -1.7  756  281           
15 16.10.13 210 (ЮЗ) 10 км    10/0 средняя, верхняя 
[Ac trans|Ci fib]
+18.8 +8.9 53 +20  1011.5  -0.5  756  283    +22.6       
18 16.10.13 040 (СВ) 10 км    10/0 средняя, верхняя 
[Ac trans|Ci fib]
+14.1 +10.3 78 +16  1011.2  -0.4  756  288           
21 16.10.13 тихо ()   10 км    10/1 1000 м верхняя 
[Sc|Ci fib]
+12.1 +10 87 +13  1009.9  -1.3  755  289           
00 17.10.13 070 (В) 10 км    8/0 средняя, верхняя 
[Ac trans|Cs]
+12.5 +9.8 84 +15  1009.3  -0.6  754  289           
03 17.10.13 060 (СВ) 10 км    10/8 1000 м кучево-дожд., средняя 
[Cb cap|Ac und]
+11.8 +9.1 84 +13  1008.9  -0.4  754  290  +11.7        сухая 
06 17.10.13 090 (В) 10 км    10/8 1000 м кучево-дожд., средняя 
[Cb cap|Ac und]
+13.7 +9.2 74 +14  1008.8  -0.1  754  288           
09 17.10.13 070 (В) 10 км    10/4 1000 м средняя 
[Ac und]
+18.2 +8.9 55 +19  1007.5  -1.2  753  283           
12 17.10.13 080 (В) 10 км    10/4 1000 м средняя, верхняя 
[Sc|Ac trans|Cc]
+21.3 +9.5 47 +22  1006.3  -1.2  752  279           
15 17.10.13 050 (СВ) 10 км    10/4 1000 м средняя, верхняя 
[Sc|Ac trans|Ci fib]
+18.5 +10.7 60 +22  1006.3  0.1  752  282    +22.1       
18 17.10.13 080 (В) 10 км    10/6 1000 м верхняя 
[Sc|Ci fib]
+18.3 +9.7 57 +21  1006.4  -0.1  752  282           
21 17.10.13 360 (С) 10 км    10/8 1000 м средняя, верхняя 
[Sc|Ac trans|Ci fib]
+16.1 +9.4 64 +17  1006.4  752  285           
00 18.10.13 080 (В) 10 км    10/8 1000 м средняя 
[Sc|Ac trans]
+14.4 +10.2 76 +16  1005.6  -0.8  752  286           
03 18.10.13 060 (СВ) 10 км    10/8 1000 м средняя 
[Sc|Ac trans]
+14 +10.5 79 +17  1004.7  -0.8  751  286  +14        сухая 
06 18.10.13 070 (В) 10 км    9/0 средняя, верхняя 
[Sc|Ac trans|Cc]
+15.7 +9.8 68 +18  1005.4  0.7  751  285  +13.9         
09 18.10.13 050 (СВ) 10 км    9/3 1000 м средняя, верхняя 
[Sc|Ac trans|Cc]
+20.3 +10.9 55 +23  1003.8  -1.5  750  279           
12 18.10.13 050 (СВ) 10 км    10/3 1000 м средняя 
[Sc|Ac und]
+22.5 +9.7 44 +23  1001.7  -2.1  749  277           
15 18.10.13 тихо ()   10 км    10/6 1000 м средняя 
[Sc|Ac und]
+18.5 +12.1 66 +23  1001.6  -0.1  749  280    +23       
18 18.10.13 110 (В) 10 км    10/0 средняя 
[Ac As]
+17 +11.2 69 +21  1000.5  -1  748  282           
21 18.10.13 140 (ЮВ) 10 км    10/0 средняя, верхняя 
[Ac inh|Cc]
+17.3 +11 66 +22  999.9  -0.6  747  281           
00 19.10.13 150 (ЮВ) 10 км    10/10 1000 м 
[Sc]
+18.7 +7.8 49 +20  999.5  -0.4  747  280           
03 19.10.13 140 (ЮВ) 2{10}  10 км  в посл. час ливневой дождь  10/8 1000 м кучево-дожд., средняя 
[Cb cap|Ac und]
+16.2 +13.1 82 +23  1001.1  1.6  748  282  +15.9    0.8    влажная 
06 19.10.13 170 (Ю) 4000 м  слаб. ливневой дождь  10/10 1000 м кучево-дожд. 
[Cb cap]
+14.9 +12.6 86 +21  1003  1.6  750  284  +14.9         
09 19.10.13 180 (Ю) 10 км  {ливн. осадки}  10/10 1000 м кучево-дожд. 
[Cb cap]
+17.1 +12.3 73 +22  1003.2  0.3  750  282           
12 19.10.13 250 (З) 10 км  в посл. час ливневой дождь  10/10 1000 м кучево-дожд. 
[Cb cap]
+16.2 +13.5 84 +22  1005  1.8  751  283           
15 19.10.13 260 (З) 4{10}  4000 м  слаб. ливневой дождь  10/10 1000 м кучево-дожд. 
[Cb cap]
+11.8 +10.6 92 +13  1010.5  5.3  755  290    +17.5     
18 19.10.13 270 (З) 5-10{12}  4000 м  слаб. ливневой дождь  10/10 1000 м кучево-дожд. 
[Cb cap]
+10.6 +9.2 91 +9  1015.3  4.7  759  293           
00 20.10.13 280 (З) 3{11}  4000 м  слаб. ливневой дождь  10/0 кучево-дожд. 
[Cb cap]
+9.5 +7.8 89 +9  1023.2  3.4  765  296           
03 20.10.13 290 (З) 10 км  {ливн. осадки}  10/10 600 м кучево-дожд. 
[Cb cap]
+9.1 +6.6 84 +9  1025.7  2.5  767  298  +9.1       
06 20.10.13 270 (З) 10 км  {ливн. осадки}  10/10 600 м кучево-дожд. 
[Cb cap]
+9.3 +5.9 79 +9  1028.2  2.5  768  298  +9         
09 20.10.13 290 (З) 10 км    9/9 1000 м кучево-дожд. 
[Cb cap]
+10.8 +4.2 64 +10  1029.5  1.3  769  298           
12 20.10.13 280 (З) 10 км    4/4 1000 м 
[Cu hum]
+12 +4.1 58 +13  1029.6  0.1  769  296           
15 20.10.13 290 (З) 10 км    ясно 
+9.6 +4.2 69 +11  1030.3  0.7  770  299    +13.2       
18 20.10.13 290 (З) 10 км    4/0 средняя 
[Ac trans]
+7.3 +3.3 76 +8  1031.6  1.2  771  302           
21 20.10.13 тихо ()   10 км    ясно 
+4.5 +2.7 88 +5  1031.7  0.1  771  305           
00 21.10.13 тихо ()   10 км    ясно 
+3.8 +2.7 93 +4  1031.1  -0.6  770  306           
03 21.10.13 тихо ()   4000 м  дымка  ясно 
+2.8 +2.1 95 +3  1030.1  -1  770  307  +2.6         
06 21.10.13 140 (ЮВ) 10 км    ясно 
+9 +4.6 74 +10  1029.4  -0.6  769  299           
09 21.10.13 220 (ЮЗ) 10 км    3/3 1000 м 
[Cu hum]
+16.1 +6.2 52 +16  1027.5  -1.8  768  291           
12 21.10.13 220 (ЮЗ) 10 км    ясно 
+16.9 +5.1 46 +17  1026.1  -1.4  767  290           
15 21.10.13 200 (Ю) 10 км    5/0 верхняя 
[Ci fib]
+12.5 +5.2 61 +13  1025.6  -0.6  766  295    +17.5       
18 21.10.13 тихо ()   10 км    4/0 верхняя 
[Ci fib]
+7.6 +5.7 88 +8  1025.4  -0.6  766  300           
21 21.10.13 130 (ЮВ) 4000 м  дымка  ясно 
+6.2 +5 92 +7  1023.9  -1.6  765  301           
00 22.10.13 тихо ()   4000 м  дымка  4/0 верхняя 
[Ci fib]
+5.4 +4.5 94 +5  1022.8  -1.1  764  301           
03 22.10.13 тихо ()   4000 м  дымка  8/0 средняя, верхняя 
[Ac cast|Cc]
+6.2 +5.4 95 +6  1021.8  -1  764  300  +5.2         
06 22.10.13 тихо ()   10 км  в посл. час ливневой дождь  10/8 1000 м кучево-дожд., средняя 
[Cb cap|Ac und]
+11.3 +9.2 87 +11  1021.7  0.1  764  294           
09 22.10.13 240 (ЮЗ) 10 км    9/6 1000 м средняя 
[Sc|Ac trans]
+15.8 +8.9 64 +17  1021  -0.7  763  289           
12 22.10.13 250 (З) 10 км    9/0 средняя, верхняя 
[Ac trans|Ci fib]
+19 +7.6 48 +20  1019.9  -1.1  762  286           
18 22.10.13 210 (ЮЗ) 10 км    9/6 1000 м средняя 
[Sc|Ac trans]
+14.2 +8.9 70 +15  1021.2  0.8  763  291           
21 22.10.13 тихо ()   10 км    9/8 1000 м средняя 
[Sc|Ac trans]
+13 +9.6 80 +13  1021.6  0.3  764  292           
00 23.10.13 270 (З) 4000 м  слаб. ливневой дождь  10/10 1000 м кучево-дожд. 
[Cb cap]
+12.8 +10.7 87 +16  1022  0.4  764  292           
03 23.10.13 030 (СВ) 4000 м  дымка{ливн. осадки}  10/10 300 м 
[St]
+12.2 +11.5 95 +16  1023.3  1.3  765  293  +12.2       
06 23.10.13 050 (СВ) 2000 м  дымка{ливн. осадки}  10/10 200 м 
[St]
+11.6 +10 90 +13  1025.5  2.1  766  294  +11.5         
09 23.10.13 040 (СВ) 10 км    10/10 300 м 
[St]
+9.8 +7.5 86 +10  1027.2  1.7  768  297           
12 23.10.13 040 (СВ) 10 км    10/10 300 м 
[St]
+9 +5.1 77 +9  1029.1  1.9  769  299           
15 23.10.13 050 (СВ) 10 км    10/10 300 м 
[St]
+7.5 +3.8 77 +7  1031.1  771  302    +12.2       
18 23.10.13 050 (СВ) 10 км    10/10 200 м 
[St]
+6.9 +2.9 76 +6  1031.9  0.7  771  303           
21 23.10.13 050 (СВ) 10 км    10/10 300 м 
[St]
+7.1 +3.4 77 +7  1031.9  771  302           
00 24.10.13 040 (СВ) 10 км    9/9 300 м 
[St]
+5.4 +1.8 78 +5  1032  0.1  771  304           
03 24.10.13 060 (СВ) 10 км    ясно 
+2.7 -0.4 80 +2  1031.9  0.1  771  308  +2.7         
06 24.10.13 070 (В) 10 км    ясно 
+6 +1 70 +5  1031.9  771  304  +2.5         
09 24.10.13 070 (В) 10 км    1/0 верхняя 
[Ci fib]
+10.9 +3.2 59 +11  1031.3  -0.5  771  298           
12 24.10.13 100 (В) 10 км    ясно 
+14.1 +4 51 +15  1030.1  -1.2  770  294           
15 24.10.13 060 (СВ) 10 км    ясно 
+11.4 +4.1 61 +13  1030.1  0.1  770  297    +14.5       
18 24.10.13 060 (СВ) 10 км    ясно 
+7.9 +3.6 74 +9  1029.5  -0.6  769  301           
21 24.10.13 050 (СВ) 10 км    ясно 
+5.5 +2.8 83 +6  1028.7  -0.8  769  303           
00 25.10.13 тихо ()   10 км    ясно 
+3.5 +2 90 +4  1028.2  -0.5  768  305           
03 25.10.13 тихо ()   10 км    ясно 
+2.4 +1.4 93 +2  1027.8  -0.4  768  307  +2.4        влажная 
06 25.10.13 тихо ()   10 км    3/0 верхняя 
[Ci fib]
+9.5 +4.8 73 +10  1027.8  0.1  768  298           
09 25.10.13 200 (Ю) 10 км    ясно 
+16.3 +6.1 51 +18  1026.5  -1.3  767  291           
12 25.10.13 320 (СЗ) 10 км    ясно 
+19.5 +4.5 37 +21  1024.7  -1.7  766  287           
15 25.10.13 тихо ()   10 км    ясно 
+12.3 +5 61 +12  1024.6  -0.2  766  294    +19.7       
18 25.10.13 тихо ()   10 км    ясно 
+9 +3.6 69 +9  1024.7  0.1  766  298           
21 25.10.13 190 (Ю) 10 км    ясно 
+5.3 +3.8 90 +6  1024.3  -0.4  765  302           
00 26.10.13 тихо ()   4000 м  дымка  ясно 
+3.5 +2.4 92 +4  1023.7  -0.7  765  304           
03 26.10.13 270 (З) 4000 м  дымка  ясно 
+3.1 +1.9 92 +4  1024.3  0.6  765  305  +2.9        влажная 
06 26.10.13 тихо ()   4000 м  дымка  3/0 средняя 
[Ac trans]
+5.7 +3 83 +6  1025.3  766  302           
09 26.10.13 270 (З) 10 км    ясно 
+12.5 +4.3 57 +14  1024.6  -0.6  766  294           
12 26.10.13 320 (СЗ) 10 км    4/3 1000 м средняя 
[Cu hum|Ac trans]
+12.6 +5.6 62 +14  1023.5  -1.1  765  294           
15 26.10.13 330 (СЗ) 10 км    3/3 1000 м 
[Sc diur, vesp]
+9.9 +5.3 73 +11  1024  0.4  765  297    +14       
18 26.10.13 010 (С) 4000 м  дымка  8/8 300 м 
[St]
+7.3 +5.7 90 +8  1025.2  1.2  766  300           
21 26.10.13 тихо ()   1000 м  дымка  10/10 300 м 
[St]
+6.7 +5.8 94 +7  1025.1  0.1  766  300           
00 27.10.13 тихо ()   1000 м  дымка  10/10 300 м 
[St]
+6.7 +5.8 94 +7  1025.1  0.1  766  300           
03 27.10.13 130 (ЮВ) 1000 м  дымка{туман}  10/10 300 м 
[St]
+6 +5.4 96 +7  1023.9  -1  765  301  +5.6         
06 27.10.13 140 (ЮВ) 0200 м  туман  ясно 
+5.3 +4.8 97 +6  1024.7  0.7  766  302  +5         
09 27.10.13 090 (В) 2000 м  в посл. час туман  10/10 300 м 
[St]
+9.3 +6.7 84 +10  1023.2  -1.4  765  297           
12 27.10.13 330 (СЗ) 4000 м  дымка{туман}  10/0 средняя, верхняя 
[As trans|Cs]
+13.1 +7.5 69 +14  1021.5  -1.7  763  292           
15 27.10.13 290 (З) 10 км    9/3 1000 м средняя 
[Sc|Ac trans]
+12.3 +8.4 77 +14  1021.1  -0.4  763  293    +14.8       
18 27.10.13 тихо ()   4000 м  дымка  9/9 1000 м 
[Sc]
+10.3 +8.5 89 +10  1020.4  -0.7  763  295           
21 27.10.13 тихо ()   4000 м  дымка  9/9 1000 м 
[Sc]
+9.5 +8.3 92 +10  1020.1  -0.4  762  295           
00 28.10.13 250 (З) 10 км    9/9 1000 м 
[Sc]
+11.3 +8.9 85 +12  1019.7  -0.3  762  293           
03 28.10.13 210 (ЮЗ) 10 км    10/10 1000 м 
[Sc]
+10.8 +8.7 87 +12  1019.3  -0.4  762  294  +9.4         
06 28.10.13 210 (ЮЗ) 10 км    9/9 1000 м 
[Sc]
+14 +8.8 71 +15  1019.5  0.3  762  291           
09 28.10.13 230 (ЮЗ) 10 км    9/9 1000 м кучево-дожд. 
[Cb cap]
+17 +8.5 57 +17  1019.4  0.1  762  288           
12 28.10.13 290 (З) 10 км    4/0 средняя 
[Ac trans]
+18.5 +9.1 54 +19  1018.3  -1  761  286           
18 28.10.13 210 (ЮЗ) 10 км    9/0 средняя 
[Ac trans]
+15.2 +8.1 63 +17  1019  0.1  761  289           
21 28.10.13 110 (В) 4000 м  дымка  ясно 
+10.6 +8.4 86 +12  1018.9  0.1  761  294           
00 29.10.13 190 (Ю) 10 км    ясно 
+12.5 +9 79 +13  1017.9  -1  761  292           
06 29.10.13 040 (СВ) 10 км    6/0 средняя, верхняя 
[Ac trans|Ci fib]
+12.5 +8.6 77 +14  1019.7  1.4  762  292           
09 29.10.13 160 (Ю) 10 км    10/0 верхняя 
[Ci fib]
+19.9 +10.3 54 +22  1019.3  -0.3  762  284           
12 29.10.13 270 (З) 10 км    6/0 верхняя 
[Ci fib]
+22 +9 43 +22  1018.7  -0.6  761  282           
15 29.10.13 200 (Ю) 10 км    4/0 верхняя 
[Ci fib]
+17.4 +9.3 59 +19  1019.5  0.7  762  287    +22.3       
18 29.10.13 330 (СЗ) 10 км    10/0 средняя, верхняя 
[Ac trans|Ci fib]
+14.6 +10.1 74 +17  1020.6  1.1  763  290           
21 29.10.13 020 (С) 10 км    6/0 верхняя 
[Ci fib]
+13 +10.2 83 +14  1021  0.3  763  292           
00 30.10.13 070 (В) 4000 м  дымка  ясно 
+10.6 +8.9 89 +12  1020.9  0.1  763  294           
09 30.10.13 080 (В) 10 км    1/0 верхняя 
[Ci fib]
+18.3 +7.5 49 +19  1021.2  -0.2  763  287           
12 30.10.13 090 (В) 10 км    1/0 верхняя 
[Ci fib]
+20.4 +7.6 44 +20  1020.4  -0.7  763  285           
15 30.10.13 тихо ()   10 км    1/0 средняя 
[Ac cast]
+16.5 +9 61 +17  1020.6  0.2  763  288    +20.6       
18 30.10.13 050 (СВ) 10 км    ясно 
+12.2 +8.8 80 +13  1021.2  0.5  763  293           
21 30.10.13 тихо ()   10 км    ясно 
+9.5 +8.3 92 +10  1021  -0.2  763  296           
00 31.10.13 тихо ()   4000 м  дымка  ясно 
+8.4 +7.4 93 +8  1021.2  0.2  763  297           
03 31.10.13 тихо ()   4000 м  дымка  ясно 
+7.7 +6.8 94 +8  1021.5  0.3  763  298  +7.7         
06 31.10.13 270 (З) 4000 м  дымка  ясно 
+11.9 +8.9 82 +13  1022.9  1.4  764  294  +7.3         
09 31.10.13 290 (З) 10 км    ясно 
+16.6 +9.8 64 +18  1023.1  0.3  765  289           
12 31.10.13 280 (З) 10 км    1/0 средняя 
[Ac trans]
+19 +10.3 57 +21  1022.7  -0.4  764  286           
15 31.10.13 310 (СЗ) 4000 м  дымка  3/0 средняя 
[Ac trans]
+13.6 +10.4 81 +15  1024.6  1.8  766  292    +19.6       
18 31.10.13 290 (З) 1000 м  слаб. морось  10/10 200 м 
[St]
+10.7 +9.5 92 +11  1026.9  2.3  767  296           
21 31.10.13 010 (С) 1000 м  в посл. час морось  10/10 200 м 
[St]
+11 +9.7 92 +12  1028  1.1  768  296           
00 01.11.13 010 (С) 1000 м  в посл. час морось  10/10 300 м 
[St]
+11.1 +9.8 92 +12  1028.6  0.5  769  296           
03 01.11.13 040 (СВ) 10 км    10/10 600 м кучево-дожд. 
[Cb cap]
+9.8 +6.6 80 +10  1029  0.4  769  298  +9.8    0.0     
06 01.11.13 050 (СВ) 10 км    9/9 1000 м 
[Sc]
+9.2 +6.2 81 +9  1030  770  299  +7.9         
09 01.11.13 040 (СВ) 10 км    3/0 верхняя 
[Ci fib]
+15.7 +6.8 55 +16  1028.8  -1.1  769  292           
12 01.11.13 080 (В) 10 км    3/3 1000 м 
[Cu hum]
+16.5 +5.9 49 +17  1027.9  -0.9  768  291           
15 01.11.13 090 (В) 10 км    8/8 1000 м 
[Sc]
+14.2 +8.6 69 +15  1027.4  -0.6  768  293    +16.9       
18 01.11.13 060 (СВ) 10 км    ясно 
+10.9 +2.9 58 +11  1026.9  -0.5  767  297           
21 01.11.13 060 (СВ) 10 км    ясно 
+8 +3.4 73 +9  1026.6  -0.3  767  300           
00 02.11.13 060 (СВ) 10 км    3/0 средняя 
[Ac trans]
+6.4 +3.4 81 +7  1026.4  -0.3  767  301           
03 02.11.13 тихо ()   10 км    ясно 
+6.7 +4.8 88 +7  1025.4  -0.9  766  301  +6.3         
06 02.11.13 060 (СВ) 10 км    6/0 верхняя 
[Ci fib]
+7.5 +4.8 83 +8  1025.2  -0.3  766  300  +5.8         
Время (UTC), дата Ветер
(°,м/с) 
Видим.   Явления Облачность Т
(°С)
Тd
(°С)
f(%) Тe
(°С)
Pmin
(гПа)
dP
(гПа)
Po
(мм)
O2
(г/м3)
Тmin Tmax R s Состояние
почвы